Total_Precipitation_Accumulation
0.04 0.04 0.04 0.03 0.04 0.04 0.05 0.08 0.14 0.13 0.06 0.01 0.00 0.00 0.00 0.02 0.04 0.08 0.13 0.12 0.12 0.11 0.08 0.06 0.05 0.05 0.05 0.06 0.07 0.09 0.10 0.13 0.18 0.24 0.32 0.40 0.49 0.61
0.04 0.05 0.06 0.05 0.05 0.05 0.06 0.08 0.13 0.19 0.14 0.04 0.01 0.01 0.02 0.03 0.05 0.11 0.14 0.11 0.11 0.11 0.08 0.07 0.06 0.06 0.07 0.08 0.08 0.09 0.10 0.11 0.13 0.16 0.22 0.31 0.41 0.54
0.05 0.06 0.07 0.07 0.08 0.07 0.08 0.08 0.09 0.14 0.18 0.09 0.04 0.04 0.07 0.10 0.12 0.16 0.15 0.14 0.12 0.13 0.13 0.13 0.10 0.09 0.09 0.10 0.11 0.12 0.12 0.12 0.13 0.14 0.17 0.24 0.32 0.41
0.05 0.05 0.05 0.06 0.08 0.07 0.07 0.07 0.08 0.13 0.21 0.20 0.12 0.09 0.10 0.12 0.16 0.17 0.12 0.10 0.13 0.15 0.15 0.13 0.11 0.11 0.10 0.10 0.10 0.09 0.08 0.07 0.08 0.10 0.14 0.22 0.30 0.36
0.04 0.04 0.04 0.05 0.06 0.07 0.08 0.09 0.11 0.14 0.21 0.24 0.17 0.13 0.11 0.10 0.17 0.19 0.18 0.21 0.13 0.10 0.10 0.09 0.09 0.10 0.10 0.09 0.08 0.07 0.05 0.03 0.03 0.07 0.14 0.21 0.28 0.34
0.02 0.03 0.04 0.06 0.09 0.12 0.11 0.12 0.16 0.18 0.20 0.22 0.18 0.14 0.12 0.12 0.22 0.29 0.27 0.21 0.17 0.10 0.09 0.08 0.08 0.07 0.09 0.14 0.10 0.08 0.07 0.06 0.07 0.13 0.20 0.23 0.27 0.31
0.02 0.03 0.04 0.07 0.12 0.14 0.15 0.17 0.20 0.23 0.24 0.27 0.25 0.20 0.15 0.18 0.26 0.31 0.29 0.21 0.15 0.12 0.13 0.11 0.13 0.22 0.41 0.53 0.37 0.18 0.12 0.11 0.13 0.21 0.28 0.29 0.28 0.28
0.03 0.04 0.04 0.05 0.07 0.08 0.10 0.14 0.21 0.27 0.31 0.35 0.32 0.26 0.19 0.25 0.33 0.37 0.37 0.32 0.23 0.14 0.16 0.13 0.23 0.54 0.92 1.17 0.85 0.38 0.26 0.22 0.19 0.24 0.29 0.30 0.28 0.25
0.07 0.07 0.05 0.05 0.09 0.11 0.10 0.09 0.11 0.17 0.31 0.44 0.43 0.31 0.28 0.34 0.46 0.48 0.41 0.38 0.31 0.22 0.27 0.25 0.35 0.65 0.83 1.01 0.99 0.64 0.49 0.41 0.32 0.33 0.34 0.33 0.29 0.26
0.06 0.07 0.10 0.12 0.12 0.09 0.07 0.07 0.10 0.19 0.30 0.37 0.41 0.37 0.38 0.43 0.53 0.54 0.46 0.39 0.29 0.24 0.31 0.37 0.43 0.61 0.68 0.89 1.19 1.10 0.92 0.74 0.60 0.54 0.49 0.44 0.37 0.32
0.03 0.05 0.08 0.11 0.11 0.10 0.10 0.12 0.15 0.22 0.28 0.40 0.47 0.53 0.58 0.57 0.53 0.49 0.50 0.48 0.40 0.27 0.32 0.42 0.52 0.63 0.75 1.01 1.17 1.27 1.20 1.02 0.83 0.68 0.58 0.49 0.42 0.39
0.02 0.04 0.07 0.09 0.10 0.11 0.11 0.17 0.23 0.29 0.43 0.58 0.68 0.74 0.68 0.61 0.55 0.51 0.54 0.57 0.55 0.48 0.38 0.43 0.51 0.66 0.93 1.15 1.12 1.03 1.03 1.08 1.00 0.87 0.72 0.53 0.37 0.32
0.07 0.10 0.13 0.13 0.14 0.11 0.13 0.21 0.33 0.44 0.64 0.84 0.83 0.68 0.53 0.43 0.41 0.43 0.44 0.49 0.56 0.57 0.44 0.47 0.57 0.69 0.88 1.05 1.09 1.03 0.90 0.88 0.90 0.97 0.94 0.72 0.46 0.36
0.14 0.16 0.18 0.20 0.17 0.16 0.21 0.34 0.44 0.61 0.77 0.86 0.73 0.55 0.43 0.36 0.34 0.32 0.33 0.36 0.41 0.46 0.42 0.46 0.60 0.74 0.86 0.87 0.92 0.93 0.90 0.95 0.98 1.00 0.97 0.88 0.66 0.54
0.17 0.23 0.24 0.23 0.25 0.32 0.42 0.53 0.61 0.70 0.78 0.72 0.57 0.48 0.42 0.35 0.31 0.29 0.28 0.30 0.33 0.34 0.33 0.38 0.51 0.66 0.80 0.81 0.82 0.79 0.88 1.12 1.21 1.17 1.06 0.91 0.77 0.63
0.16 0.26 0.37 0.40 0.44 0.51 0.58 0.64 0.67 0.74 0.72 0.56 0.44 0.39 0.35 0.31 0.29 0.27 0.26 0.27 0.30 0.31 0.31 0.35 0.42 0.52 0.67 0.73 0.77 0.83 0.88 1.24 1.41 1.29 1.16 1.09 0.95 0.81
0.19 0.28 0.37 0.43 0.48 0.52 0.52 0.56 0.59 0.58 0.56 0.48 0.41 0.35 0.31 0.29 0.28 0.27 0.25 0.23 0.26 0.31 0.33 0.35 0.38 0.42 0.51 0.60 0.75 0.87 0.97 1.15 1.29 1.20 1.05 1.09 1.09 0.95
0.24 0.35 0.47 0.54 0.57 0.58 0.55 0.55 0.55 0.51 0.47 0.44 0.41 0.36 0.31 0.29 0.29 0.27 0.25 0.24 0.27 0.28 0.30 0.30 0.29 0.27 0.30 0.44 0.73 0.87 0.90 1.07 1.13 0.99 0.80 0.84 1.00 0.92
0.23 0.38 0.53 0.66 0.68 0.62 0.55 0.53 0.57 0.57 0.53 0.48 0.41 0.36 0.32 0.28 0.25 0.24 0.24 0.23 0.24 0.24 0.23 0.19 0.16 0.14 0.15 0.38 0.70 0.98 0.96 0.93 0.85 0.76 0.66 0.61 0.77 0.82
0.26 0.40 0.54 0.61 0.63 0.63 0.57 0.55 0.57 0.59 0.55 0.47 0.40 0.36 0.31 0.25 0.22 0.22 0.22 0.20 0.18 0.15 0.14 0.13 0.15 0.16 0.16 0.30 0.66 0.96 0.95 0.69 0.55 0.56 0.54 0.53 0.68 0.75
0.29 0.38 0.47 0.49 0.48 0.49 0.48 0.47 0.51 0.54 0.51 0.43 0.38 0.34 0.29 0.24 0.22 0.20 0.17 0.14 0.13 0.11 0.13 0.18 0.22 0.20 0.12 0.11 0.35 0.64 0.76 0.76 0.53 0.40 0.37 0.40 0.42 0.37
0.26 0.34 0.41 0.40 0.37 0.36 0.33 0.33 0.35 0.37 0.36 0.33 0.31 0.28 0.26 0.23 0.20 0.17 0.14 0.12 0.11 0.11 0.14 0.16 0.16 0.12 0.10 0.13 0.29 0.50 0.57 0.53 0.50 0.49 0.44 0.30 0.20 0.24
0.23 0.25 0.29 0.33 0.32 0.29 0.25 0.22 0.23 0.24 0.24 0.25 0.25 0.25 0.23 0.19 0.15 0.11 0.09 0.07 0.07 0.07 0.07 0.08 0.08 0.07 0.08 0.09 0.14 0.22 0.25 0.23 0.19 0.23 0.40 0.42 0.29 0.30